Regional Weather Roundup
Issued by NWS

Home | Current Version | Previous Version | Graphics & Text | Print | Product List | Glossary On
Versions: 1 2 3 4 5 6 7 8 9 10 11 12 13 14 15 16 17 18 19 20 21 22 23 24 25 26 27 28 29 30 31 32 33 34 35 36 37 38 39 40 41 42 43 44 45 46 47 48 49 50
000
ASUS45 KBOU 261307
RWRCO

WEATHER ROUNDUP FOR COLORADO
NATIONAL WEATHER SERVICE DENVER/BOULDER CO
600 AM MST FRI DEC 26 2014

NOTE: "FAIR" INDICATES FEW OR NO CLOUDS BELOW 12000 FEET WITH NO
SIGNIFICANT WEATHER AND/OR OBSTRUCTIONS TO VISIBILITY.

COZ001>005-013-030-031-261400-
...NORTHWEST COLORADO...

CITY           SKY/WX    TMP DP  RH WIND       PRES   REMARKS
CRAIG          CLOUDY    18  13  80 W9        29.77R WCI   7
HAYDEN         CLOUDY    16  12  86 W9        29.73R WCI   4
MEEKER         LGT SNOW  19  14  81 W7        29.74R WCI  10
MOUNT WERNER   NOT AVBL
STEAMBOAT SPGS NOT AVBL
WALDEN         NOT AVBL
$$

COZ006>008-011-261400-
...WEST CENTRAL VALLEYS...

CITY           SKY/WX    TMP DP  RH WIND       PRES   REMARKS
GRAND JUNCTION LGT SNOW  25  25 100 CALM      29.76R FOG
MONTROSE       CLOUDY    24  22  91 N7        29.75R WCI  16
EAGLE          CLOUDY    21  21 100 W5        29.72R WCI  15
RIFLE          CLOUDY    23  20  88 S3        29.75R
DELTA          CLOUDY    26  24  91 CALM      29.76R
NUCLA          FLURRIES  21  18  86 E7        29.77R WCI  13
$$

COZ017>023-064>068-261400-
...SOUTHWEST COLORADO...

CITY           SKY/WX    TMP DP  RH WIND       PRES   REMARKS
DURANGO        LGT SNOW  22  20  92 CALM      29.66S FOG
CORTEZ         MOCLDY    16  14  92 N3        29.71R
PAGOSA SPRINGS LGT SNOW  22  22  98 CALM      29.66S
TELLURIDE      CLOUDY    13   7  77 CALM      29.64R
WOLF CREEK PAS NOT AVBL
$$

COZ009-010-012-014-032>034-037-058>063-261400-
...CENTRAL COLORADO...

CITY           SKY/WX    TMP DP  RH WIND       PRES   REMARKS
ASPEN          LGT SNOW  18  17  96 CALM      29.65R FOG
BUENA VISTA    FLURRIES  13   6  75 CALM      29.72S
COPPER MTN     NOT AVBL
BERTHOUD PASS  NOT AVBL
COTTONWOOD PAS NOT AVBL
GUNNISON       CLOUDY    12   9  85 CALM      29.70R
KREMMLING      NOT AVBL
LEADVILLE      CLOUDY     5   2  87 CALM      29.61R
SALIDA         CLOUDY    19  16  90 N6        29.81R WCI  10
SUNLIGHT       NOT AVBL
WILKERSON PASS NOT AVBL
$$

COZ069>075-261400-
...SAN LUIS VALLEY/SANGRE DE CRISTO MOUNTAINS...

CITY           SKY/WX    TMP DP  RH WIND       PRES   REMARKS
ALAMOSA        MIX PCPN  20  17  88 SE12      29.65S WCI   8
LA VETA PASS   NOT AVBL
SAGUACHE       NOT AVBL
$$

COZ035-036-038>040-261400-
...NORTHERN COLORADO FRONT RANGE...

CITY           SKY/WX    TMP DP  RH WIND       PRES   REMARKS
DENVER INTL AP LGT SNOW  15  13  91 N5        29.89S FOG     WCI   8
DMNS CITY PARK   N/A     17  15  93 E6        29.91R WCI   8
AURORA         FLURRIES  13  12  98 N5        29.89R WCI   5
FRONT RANGE AP NOT AVBL
ERIE MUNI ARPT NOT AVBL
BOULDER MUN AP NOT AVBL
CENTENNIAL     LGT SNOW  14  12  92 NE5       29.86S FOG     WCI   6
BROOMFIELD     NOT AVBL
FORT COLLINS   MOCLDY    18  14  86 CALM      29.93R
LONGMONT       NOT AVBL
$$

COZ041-046-047-076>085-087-088-261400-
...PIKES PEAK/PALMER DIVIDE AND SOUTHERN FOOTHILLS...

CITY           SKY/WX    TMP DP  RH WIND       PRES   REMARKS
COLO. SPRINGS  CLOUDY    18  10  71 N13       29.84R WCI   5
A. F. ACADEMY  MIX PCPN  15   9  78 N14       29.81R WCI   0
ELLICOTT       NOT AVBL
FALCON         NOT AVBL
FORT CARSON    CLOUDY    19  10  70 NE10      29.83R WCI   7
LIMON          LGT SNOW  17  15  92 N16       29.87R FOG     WCI   2
MONUMENT HILL  NOT AVBL
TRINIDAD       LGT SNOW  22  19  89 N8        29.83R FOG     WCI  12
$$

COZ042>045-048>051-090-091-261400-
...NORTHEAST COLORADO...

CITY           SKY/WX    TMP DP  RH WIND       PRES   REMARKS
GREELEY ARPT   PTCLDY    18  10  73 NE5       29.93R WCI  11
AKRON          FLURRIES  18  16  92 N15       29.91R WCI   4
BURLINGTON     CLOUDY    23  19  85 N16G24    29.91R WCI  10
WRAY           FLURRIES  23  20  89 N14       29.95R WCI  11
STERLING       NOT AVBL
HOLYOKE        NOT AVBL
FORT MORGAN    CLOUDY    19  16  88 N10       29.94S WCI   7
$$

COZ086-089-092>099-261400-
...SOUTHEAST COLORADO...

CITY           SKY/WX    TMP DP  RH WIND       PRES   REMARKS
PUEBLO         CLOUDY    22  13  68 NE13      29.90R WCI  10
LA JUNTA       LGT SNOW  25  21  85 N9        29.91R VSB 1   WCI  15
LAMAR          CLOUDY    26  22  84 NE13      29.90R WCI  15
SPRINGFIELD      N/A     24  23  96 N17       29.85R WCI  11
$$



USA.gov is the U.S. government's official web portal to all federal, state and local government web resources and services.